Location: Newark
(48.4472°N, 1.4892°E)
Time: 10:48:50
(UTC+00:00)

Transit 4A - Pass Details

Date: 19 January 2021
Orbit: 866 x 978 km, 66.8° (Epoch: 26 February)

Event Time Altitude Azimuth Distance (km) Brightness Sun altitude
Rises 20:24:24 0° 215° (SW) 3,662 11.3 -37.9°
Reaches altitude 10° 20:26:57 10° 216° (SW) 2,721 10.5 -38.3°
Enters shadow 20:28:00 15° 216° (SW) 2,344 10.1 -38.4°
